| time (UTC) | temp F | wind direction | speed MPH | gust MPH | rain 1hr in | rain 24hr in | rain mn in | humidity % | barometer mb |
| 20260508220307 | 49 | 315 | 0.0 | 0.0 | 0.00 | 0.00 | 0.00 | 10 | 1022.2 |
| 20260508215240 | 49 | 315 | 0.0 | 0.0 | 0.00 | 0.00 | 0.00 | 10 | 1022.2 |
| 20260508213145 | 49 | 315 | 0.0 | 0.0 | 0.00 | 0.00 | 0.00 | 10 | 1022.3 |
| 20260508212118 | 49 | 315 | 0.0 | 0.0 | 0.00 | 0.00 | 0.00 | 10 | 1022.3 |
| 20260508211050 | 50 | 315 | 0.0 | 0.0 | 0.00 | 0.00 | 0.00 | 10 | 1022.2 |
| 20260508210023 | 50 | 315 | 0.0 | 0.0 | 0.00 | 0.00 | 0.00 | 10 | 1022.3 |
| 20260508201834 | 50 | 315 | 0.0 | 0.0 | 0.00 | 0.00 | 0.00 | 10 | 1022.2 |
| 20260508200806 | 50 | 315 | 0.0 | 0.0 | 0.00 | 0.00 | 0.00 | 10 | 1022.1 |
| 20260508195739 | 50 | 315 | 0.0 | 0.0 | 0.00 | 0.00 | 0.00 | 10 | 1022.1 |
| 20260508193644 | 51 | 315 | 0.0 | 0.0 | 0.00 | 0.00 | 0.00 | 10 | 1022.0 |
| 20260508191549 | 51 | 315 | 4.0 | 0.0 | 0.00 | 0.00 | 0.00 | 10 | 1021.8 |
| 20260508190522 | 51 | 315 | 3.0 | 0.0 | 0.00 | 0.00 | 0.00 | 10 | 1021.7 |
| 20260508185455 | 51 | 270 | 1.0 | 0.0 | 0.00 | 0.00 | 0.00 | 10 | 1021.7 |
| 20260508184427 | 52 | 0 | 0.0 | 0.0 | 0.00 | 0.00 | 0.00 | 10 | 1021.6 |
| 20260508183400 | 52 | 270 | 5.0 | 0.0 | 0.00 | 0.00 | 0.00 | 10 | 1021.5 |
| 20260508175210 | 53 | 315 | 0.0 | 0.0 | 0.00 | 0.00 | 0.00 | 10 | 1021.5 |
| 20260508174142 | 53 | 315 | 3.0 | 0.0 | 0.00 | 0.00 | 0.00 | 10 | 1021.4 |
| 20260508171020 | 53 | 315 | 1.0 | 0.0 | 0.00 | 0.00 | 0.00 | 10 | 1021.3 |
| 20260508164924 | 53 | 315 | 4.0 | 0.0 | 0.00 | 0.00 | 0.00 | 10 | 1021.3 |
| 20260508162829 | 54 | 315 | 3.0 | 0.0 | 0.00 | 0.00 | 0.00 | 10 | 1021.3 |
| 20260508151517 | 56 | 0 | 0.0 | 0.0 | 0.00 | 0.00 | 0.00 | 10 | 1021.2 |
| 20260508144354 | 57 | 315 | 6.0 | 0.0 | 0.00 | 0.00 | 0.00 | 10 | 1021.2 |
| 20260508143326 | 56 | 315 | 3.0 | 0.0 | 0.00 | 0.00 | 0.00 | 10 | 1021.2 |
| 20260508142259 | 58 | 315 | 0.0 | 0.0 | 0.00 | 0.00 | 0.00 | 10 | 1021.2 |
| 20260508134109 | 58 | 0 | 0.0 | 0.0 | 0.00 | 0.00 | 0.00 | 10 | 1021.3 |
| 20260508133041 | 58 | 315 | 0.0 | 0.0 | 0.00 | 0.00 | 0.00 | 10 | 1021.4 |
| 20260508132014 | 57 | 315 | 0.0 | 0.0 | 0.00 | 0.00 | 0.00 | 10 | 1021.5 |
| 20260508125919 | 54 | 45 | 1.0 | 0.0 | 0.00 | 0.00 | 0.00 | 10 | 1021.6 |
| 20260508124851 | 54 | 315 | 1.0 | 0.0 | 0.00 | 0.00 | 0.00 | 10 | 1021.7 |
| 20260508123824 | 54 | 315 | 1.0 | 0.0 | 0.00 | 0.00 | 0.00 | 10 | 1021.8 |
| 20260508122756 | 53 | 315 | 0.0 | 0.0 | 0.00 | 0.00 | 0.00 | 10 | 1021.7 |
| 20260508120701 | 54 | 315 | 0.0 | 0.0 | 0.00 | 0.00 | 0.00 | 10 | 1021.7 |
| 20260508104321 | 55 | 270 | 3.0 | 0.0 | 0.00 | 0.00 | 0.00 | 10 | 1021.6 |
| 20260508103253 | 54 | 315 | 0.0 | 0.0 | 0.00 | 0.00 | 0.00 | 10 | 1021.6 |
| 20260508101200 | 55 | 315 | 2.0 | 0.0 | 0.00 | 0.00 | 0.00 | 10 | 1021.6 |
| 20260508091940 | 55 | 0 | 0.0 | 0.0 | 0.00 | 0.00 | 0.00 | 10 | 1021.6 |
| 20260508090913 | 56 | 270 | 0.0 | 0.0 | 0.00 | 0.00 | 0.00 | 10 | 1021.6 |
| 20260508081655 | 52 | 135 | 3.0 | 0.0 | 0.00 | 0.00 | 0.00 | 10 | 1021.8 |
| 20260508080627 | 52 | 135 | 1.0 | 0.0 | 0.00 | 0.00 | 0.00 | 10 | 1021.7 |
| 20260508075600 | 54 | 315 | 0.0 | 0.0 | 0.00 | 0.00 | 0.00 | 10 | 1021.6 |
| 20260508070342 | 48 | 315 | 0.0 | 0.0 | 0.00 | 0.00 | 0.00 | 10 | 1021.6 |
| 20260508062152 | 46 | 135 | 3.0 | 0.0 | 0.00 | 0.00 | 0.00 | 10 | 1021.3 |
| 20260508060058 | 47 | 315 | 0.0 | 0.0 | 0.00 | 0.00 | 0.00 | 10 | 1021.2 |
| 20260508045812 | 44 | 135 | 0.0 | 0.0 | 0.00 | 0.00 | 0.00 | 10 | 1021.0 |
| 20260508044744 | 44 | 45 | 0.0 | 0.0 | 0.00 | 0.00 | 0.00 | 10 | 1020.9 |
| 20260508043717 | 44 | 135 | 1.0 | 0.0 | 0.00 | 0.00 | 0.00 | 10 | 1020.8 |
| 20260508040554 | 45 | 90 | 0.0 | 0.0 | 0.00 | 0.00 | 0.00 | 10 | 1020.6 |
| 20260508035526 | 44 | 315 | 0.0 | 0.0 | 0.00 | 0.00 | 0.00 | 10 | 1020.6 |
| 20260508034459 | 45 | 315 | 0.0 | 0.0 | 0.00 | 0.00 | 0.00 | 10 | 1020.4 |
| 20260508032404 | 45 | 315 | 0.0 | 0.0 | 0.00 | 0.00 | 0.00 | 10 | 1020.4 |
| 20260508025242 | 45 | 315 | 0.0 | 0.0 | 0.00 | 0.00 | 0.00 | 10 | 1020.5 |
| 20260508021052 | 45 | 315 | 0.0 | 0.0 | 0.00 | 0.00 | 0.00 | 10 | 1020.7 |
| 20260508014957 | 45 | 315 | 0.0 | 0.0 | 0.00 | 0.00 | 0.00 | 10 | 1020.7 |
| 20260508005741 | 46 | 315 | 0.0 | 0.0 | 0.00 | 0.00 | 0.00 | 10 | 1020.6 |
| 20260508001551 | 46 | 315 | 0.0 | 0.0 | 0.00 | 0.00 | 0.00 | 10 | 1020.6 |
| 20260508000524 | 46 | 315 | 0.0 | 0.0 | 0.00 | 0.00 | 0.00 | 10 | 1020.6 |
| 20260507235457 | 46 | 315 | 0.0 | 0.0 | 0.00 | 0.00 | 0.00 | 10 | 1020.7 |
| 20260507234429 | 46 | 315 | 0.0 | 0.0 | 0.00 | 0.00 | 0.00 | 10 | 1020.7 |
| 20260507233402 | 46 | 315 | 0.0 | 0.0 | 0.00 | 0.00 | 0.00 | 10 | 1020.7 |
| 20260507232335 | 46 | 315 | 0.0 | 0.0 | 0.00 | 0.00 | 0.00 | 10 | 1020.6 |
| 20260507231307 | 46 | 315 | 0.0 | 0.0 | 0.00 | 0.00 | 0.00 | 10 | 1020.7 |
| 20260507230240 | 46 | 270 | 0.0 | 0.0 | 0.00 | 0.00 | 0.00 | 10 | 1020.6 |
| 20260507225212 | 46 | 315 | 0.0 | 0.0 | 0.00 | 0.00 | 0.00 | 10 | 1020.5 |
| 20260507224145 | 46 | 315 | 0.0 | 0.0 | 0.00 | 0.00 | 0.00 | 10 | 1020.4 |
| 20260507223118 | 46 | 315 | 0.0 | 0.0 | 0.00 | 0.00 | 0.00 | 10 | 1020.4 |
| 20260507222050 | 46 | 315 | 0.0 | 0.0 | 0.00 | 0.00 | 0.00 | 10 | 1020.5 |
| 20260507221023 | 47 | 315 | 0.0 | 0.0 | 0.00 | 0.00 | 0.00 | 10 | 1020.5 |